TimeCDT,TemperatureF,Dew PointF,Humidity,Sea Level PressureIn,VisibilityMPH,Wind Direction,Wind SpeedMPH,Gust SpeedMPH,PrecipitationIn,Events,Conditions,WindDirDegrees,DateUTC
12:53 AM,57.9,46.9,67,30.05,10.0,West,4.6,-,N/A,,Clear,260,2013-05-11 05:53:00
1:53 AM,55.0,46.0,72,30.05,10.0,West,5.8,-,N/A,,Clear,260,2013-05-11 06:53:00
2:53 AM,52.0,45.0,77,30.04,10.0,West,6.9,-,N/A,,Clear,260,2013-05-11 07:53:00
3:53 AM,50.0,44.1,80,30.04,10.0,WSW,6.9,-,N/A,,Clear,250,2013-05-11 08:53:00
4:53 AM,50.0,43.0,77,30.04,10.0,West,5.8,-,N/A,,Clear,260,2013-05-11 09:53:00
5:53 AM,50.0,44.1,80,30.05,10.0,WNW,5.8,-,N/A,,Clear,290,2013-05-11 10:53:00
6:53 AM,53.1,45.0,74,30.06,10.0,West,5.8,-,N/A,,Partly Cloudy,280,2013-05-11 11:53:00
7:53 AM,55.0,45.0,69,30.10,10.0,North,13.8,24.2,N/A,,Scattered Clouds,350,2013-05-11 12:53:00
8:53 AM,57.0,39.0,51,30.13,10.0,North,23.0,34.5,N/A,,Partly Cloudy,10,2013-05-11 13:53:00
9:53 AM,57.9,30.0,35,30.16,10.0,North,26.5,34.5,N/A,,Scattered Clouds,10,2013-05-11 14:53:00
10:53 AM,60.1,30.9,33,30.18,10.0,North,21.9,32.2,N/A,,Scattered Clouds,360,2013-05-11 15:53:00
11:53 AM,61.0,34.0,36,30.19,10.0,North,18.4,27.6,N/A,,Partly Cloudy,10,2013-05-11 16:53:00
12:53 PM,63.0,32.0,31,30.19,10.0,North,17.3,27.6,N/A,,Clear,350,2013-05-11 17:53:00
1:53 PM,64.0,30.9,29,30.19,10.0,NNW,24.2,29.9,N/A,,Clear,330,2013-05-11 18:53:00
2:53 PM,64.0,28.9,27,30.19,10.0,NNW,21.9,31.1,N/A,,Clear,340,2013-05-11 19:53:00
3:53 PM,64.0,30.0,28,30.19,10.0,NNW,15.0,25.3,N/A,,Clear,340,2013-05-11 20:53:00
4:53 PM,64.0,30.9,29,30.17,10.0,North,17.3,26.5,N/A,,Clear,350,2013-05-11 21:53:00
5:53 PM,63.0,28.0,27,30.18,10.0,North,17.3,27.6,N/A,,Clear,350,2013-05-11 22:53:00
6:53 PM,61.0,27.0,27,30.18,10.0,North,19.6,24.2,N/A,,Clear,350,2013-05-11 23:53:00
7:53 PM,57.0,25.0,29,30.19,10.0,North,12.7,-,N/A,,Clear,350,2013-05-12 00:53:00
8:53 PM,51.1,27.0,39,30.21,10.0,NNW,8.1,-,N/A,,Clear,340,2013-05-12 01:53:00
9:53 PM,48.9,27.0,43,30.24,10.0,North,9.2,-,N/A,,Clear,350,2013-05-12 02:53:00
10:53 PM,46.9,26.1,44,30.25,10.0,North,6.9,-,N/A,,Clear,360,2013-05-12 03:53:00
11:53 PM,50.0,24.1,36,30.24,10.0,NW,3.5,-,N/A,,Clear,310,2013-05-12 04:53:00